Airfield :
LOGIN :

Register | Disclaimer

   EN    FR    IT 

 










Legend :    VFR   Marginal VFR   IFR   Intensive IFR   Very Intensive IFR
Visi :
Ceiling :
>= 8 km
>= 3000ft
5 to 8 km
1000 to 3000 ft
1500m to 5 km
500 to 1000 ft
800 to 1500m
200 to 500 ft
< 800m
< 200 ft
Symbols :   Thunderstorms  Fog  Heavy snow  Heavy precipitations  Wind > 20 kt
SIGMETs :     Misc.  Thunderstorms  Icing  Turbulence  Mountain Waves  Volcanic Ashes







- Airport Elevation : 75 ft
- IATA code : YEO


EGDY - RNAS Yeovilton

CURRENT METAR :
  • 270250Z AUTO 23005KT 9999 ///////// 08/07 Q1013

EXPIRED METARs :
  • 270150Z AUTO 23003KT 9999 ///////// 08/06 Q1013
  • 270050Z AUTO 22002KT 9999 ///////// 09/08 Q1013

Expired Forecast.
No reported NOTAMs for that airfield.
1 SIGMET reported for the London FIR (EGTT) :
 
Severe mountain waves
EGTT SIGMET 03 VALID 262300/270300 EGRR
EGTT LONDON FIR SEV MTW FCST N OF LINE N5350 W00530 - N5306 E00322 FL030/150 STNR NC=



MET'MAP, your aeronautical weather chart ! - Copyright ORBIFLY December 2007 - Disclaimer

ORBIFLY MET'MAP TEAM :

Programming & Development : Alexandra Zaïnal
Concept & Development : Baudouin d'Aumeries
Co-Development & Prog : Marc-Olivier Méhu
Technical & hardware support : Manuel Goepfert

Contact : metmap@orbifly.com




SOURCES & CREDITS :

   NOAA